LiveATC.Net - Listen to live air traffic control over the Internet!


ICAO: PAFA  IATA: FAI   Airport: Fairbanks International Airport
City: Fairbanks   State/Province: Alaska
Country: United States   Continent: North America
PAFA METAR Weather: PAFA 181553Z 00000KT 10SM -RA FEW050 BKN075 BKN100 BKN160 15/13 A2978 RMK AO2 RAB42 SLP088 P0000 T01500128
PAFA Flight Activity (FlightAware)
PAFA Airport Info   (iFlightPlanner)
PAFA VFR Sectional Chart   (iFlightPlanner) 
PAFA IFR Low Chart   (iFlightPlanner) 

PAFA Gnd/Twr/App
Feed Status: DOWN
Last heard on: 2019-07-18 02:25:39 (0 days 13 hours 46 minutes ago)
PAFA Gnd/Twr/App Audio Archives
FacilityFrequency
Fairbanks Approach125.350
Fairbanks Approach126.500
Fairbanks Ground121.900
Fairbanks Tower118.300

NOTICE

Unauthorized use prohibited. See LiveATC.net Terms of Service


Find LiveATC Audio Streams


Airport/ARTCC Code

Frequency Search
(e.g., 124.400, 128.75)
Site-wide search
 


Browse LiveATC Feeds
Top 50 LiveATC Feeds
LiveATC Feed Map
Bad Weather Areas

LiveATC FAQ
Offer LiveATC feed
Contact LiveATC.net
Press Inquiries

LiveATC on iPhone
LiveATC on Android

Windows Phone
Windows 8/10

LiveATC Mobile
(Mobile browser)

ATC Audio Archives
Interesting Recordings

LiveATC Forums


Home Page
About LiveATC.net
Make a Donation
Terms of Use
Privacy Policy

Canadian Air Freqs

AIRMETs/SIGMETs

FAA Airport Status
Nat'l Airspace Status
Arrival Demand Charts


Server Software By:
Icecast.org
Liquidsoap